Weather in Kunakulovo

Russia / Republic of Bashkortostan     53°43′00″N   54°26′35″E
temp.,
°C
wind,
m/s
gust,
m/s
humid.,
%
clouds,
%
prec.,
mm/h
press.,
hPa
HPBL,
m
7 march, sun
sun723:00−12wnw1296100 0.1 101421
02:00−14nnw1193100 0.0 101320
05:00−14n2289100 0.0 101220
08:00−16nnw1188100 0.0 101120
11:00−12nw228450 0.0 1012163
14:00−10wnw46850 0.0 1011469
17:00−10w46905 0.0 1011402
20:00−16sw229828 0.0 101220
8 march, mon
mon823:00−15ssw359852 0.1 1012101
02:00−14ssw51196100 0.1 1010305
05:00−12ssw71695100 0.4 1007543
08:00−9ssw101793100 1.0 1003827
11:00−6ssw121893100 2.3 10021192
14:00−3sw121789100 1.0 10021336
17:00−3wsw10176995 1.9 10041256
20:00−7wsw5149297 0.1 1006498
9 march, tue
tue923:00−9sw4109288 0.1 1007191
02:00−6ssw269789 0.4 1006163
05:00−4sw6119695 1.7 1004642
08:00−3wsw71195100 0.9 1003670
11:00−6wsw81188100 1.2 1005988
14:00−6wsw688498 0.0 1008788
17:00−7w348999 0.1 1009431
20:00−13nw2294100 0.0 100821
10 march, wed
wed1023:00−12n3393100 0.0 100861
02:00−13nnw2294100 0.0 100721
05:00−15nw2395100 0.0 100823
08:00−19nw239742 0.0 100922
11:00−15nw359170 0.0 1010293
14:00−13nw4689100 0.0 1012492
17:00−13nw4689100 0.2 1013573
20:00−19nnw3595100 0.1 1015107
11 march, thu
thu1123:00−22nnw2396100 0.1 101735
02:00−23nw2294100 0.0 101820
05:00−26nw229496 0.0 102120
08:00−28nw229725 0.0 102219
11:00−22w238813 0.0 1023238
14:00−19w47890 0.0 1023327
17:00−19wsw58923 0.0 1023358
20:00−23wsw499790 0.0 1024206